Weather in Kavaratti

India     10°34′09″N   72°38′14″E
temp.,
°C
wind,
m/s
gust,
m/s
humid.,
%
clouds,
%
prec.,
mm/h
press.,
hPa
HPBL,
m
21 april, wed
wed2123:30+29nnw336788 0.0 1012909
02:30+29nw337299 0.0 1009726
05:30+29nnw3373100 0.0 1010786
08:30+29nnw337392 0.0 1012781
11:30+29n447316 0.0 1012784
14:30+29nnw447133 0.0 1009803
17:30+29nnw557190 0.0 1009942
20:30+29nnw446830 0.0 1011849
22 april, thu
thu2223:30+29nw446798 0.0 1012704
02:30+29nw446859 0.0 1009743
05:30+29nnw446715 0.0 1010939
08:30+29n336725 0.0 10131000
11:30+29n22674 0.0 1012862
14:30+29nnw226710 0.0 1010836
17:30+29nw33655 0.0 1010802
20:30+29wnw336798 0.0 1011887
23 april, fri
fri2323:30+29wnw3368100 0.0 1012934
02:30+29nw226943 0.0 1009888
05:30+29nw337082 0.0 1010898
08:30+29nw226972 0.0 1012849
11:30+29nnw33695 0.1 1012839
14:30+29nnw33686 0.0 1010927
17:30+29nnw33682 0.0 1009871
20:30+29nw336797 0.0 1011801
24 april, sat
sat2423:30+29nw4468100 0.0 1012983
02:30+29nw3368100 0.0 1009924
05:30+29nnw3368100 0.0 1010952
08:30+29n346997 0.1 1012896
11:30+29n3367100 0.1 10111000
14:30+29nnw3266100 0.0 1009861
17:30+29nw4368100 0.0 1009877
20:30+29wnw336747 0.0 1011880
25 april, sun
sun2523:30+29wnw446847 0.0 1011925
02:30+29nw446997 0.0 1010980
05:30+29nnw44687 0.0 10101012
08:30+29nnw446725 0.0 10121028
11:30+29nnw336721 0.0 10121012
14:30+29nw44677 0.0 10091021
17:30+29nw55685 0.0 1008999
20:30+29nw44684 0.0 1010932